Hagerstown, MD

11:02 AM EDT on October 16, 2019 (GMT -0400)
Hagerstown Regional-Henson

Weather History for KHGR - August, 2019

Change the Weather History Date:

Friday, August 9, 2019

  Actual Average Record
Temperature  
Mean Temperature 79 °F 74 °F  
Max Temperature 88 °F 84 °F 96 °F (2001)
Min Temperature 69 °F 64 °F 55 °F (2002)
Degree Days  
Heating Degree Days 0 0  
Month to date heating degree days 0 0  
Since 1 June heating degree days 5 18  
Since 1 July heating degree days 0 0  
Cooling Degree Days 14 9  
Month to date cooling degree days 118 86  
Year to date cooling degree days 985 692  
Since 1 June cooling degree days 803 616  
Growing Degree Days 29 (Base 50)    
Moisture  
Dew Point 57 °F    
Average Humidity 51    
Maximum Humidity 73    
Minimum Humidity 29    
Precipitation  
Precipitation 0.00 in 0.10 in 0.76 in (2007)
Month to date precipitation 0.77 0.88  
Year to date precipitation 26.74 24.37  
Sea Level Pressure  
Sea Level Pressure 29.85 in    
Wind  
Wind Speed 9 mph (West)    
Max Wind Speed 23 mph    
Max Gust Speed 30 mph    
Visibility 10 miles    
Events      
T = Trace of Precipitation, MM = Missing Value Source: NWS Daily Summary

Daily Weather History Graph

Daily Weather History Graph

Search for Another Location

Airport or City:

Astronomy

Aug. 09, 2019 Rise Set
Actual Time 6:17 AM EDT 8:15 PM EDT
Civil Twilight 5:47 AM EDT 8:44 PM EDT
Nautical Twilight 5:11 AM EDT 9:20 PM EDT
Astronomical Twilight 4:33 AM EDT 9:58 PM EDT
Moon 3:53 PM EDT (8/9) 1:13 AM EDT (8/9)
Length of Visible Light 14h 56m
Length of Day
13h 57m
Waxing Gibbous, 70% of the Moon is Illuminated
Aug 9
Waxing Gibbous
Aug 15
Full
Aug 23
Last Quarter
Aug 30
New
Sep 5
First Quarter

Hourly Weather History & Observations

Time (EDT) Temp. Heat Index Dew Point Humidity Pressure Visibility Wind Dir Wind Speed Gust Speed Precip Events Conditions
12:53 AM 75.9 °F - 61.0 °F 60% 29.83 in 10.0 mi SW 6.9 mph - N/A   Clear
1:53 AM 73.9 °F - 62.1 °F 66% 29.83 in 10.0 mi WSW 6.9 mph - N/A   Clear
2:53 AM 73.9 °F - 62.1 °F 66% 29.83 in 10.0 mi WSW 4.6 mph - N/A   Clear
3:53 AM 73.0 °F - 62.1 °F 68% 29.83 in 10.0 mi West 6.9 mph - N/A   Scattered Clouds
4:53 AM 73.0 °F - 62.1 °F 68% 29.83 in 10.0 mi WSW 5.8 mph - N/A   Clear
5:53 AM 72.0 °F - 62.1 °F 71% 29.83 in 10.0 mi SW 5.8 mph - N/A   Clear
6:53 AM 71.1 °F - 62.1 °F 73% 29.85 in 10.0 mi WSW 3.5 mph - N/A   Clear
7:53 AM 73.0 °F - 62.1 °F 68% 29.87 in 10.0 mi West 4.6 mph - N/A   Clear
8:53 AM 75.0 °F - 63.0 °F 66% 29.87 in 10.0 mi WNW 8.1 mph - N/A   Partly Cloudy
9:53 AM 78.1 °F - 63.0 °F 60% 29.86 in 10.0 mi West 9.2 mph - N/A   Partly Cloudy
10:53 AM 79.0 °F - 62.1 °F 56% 29.86 in 10.0 mi WNW 9.2 mph - N/A   Scattered Clouds
11:53 AM 82.0 °F 82.4 °F 60.1 °F 47% 29.86 in 10.0 mi West 11.5 mph - N/A   Mostly Cloudy
12:53 PM 82.9 °F 82.8 °F 59.0 °F 44% 29.84 in 10.0 mi NW 11.5 mph 20.7 mph N/A   Mostly Cloudy
1:53 PM 84.0 °F 83.5 °F 57.9 °F 41% 29.83 in 10.0 mi NW 15.0 mph - N/A   Scattered Clouds
2:53 PM 87.1 °F 85.1 °F 54.0 °F 32% 29.81 in 10.0 mi West 20.7 mph 29.9 mph N/A   Partly Cloudy
3:53 PM 88.0 °F 85.7 °F 53.1 °F 30% 29.80 in 10.0 mi West 18.4 mph 23.0 mph N/A   Partly Cloudy
4:53 PM 87.1 °F - 51.1 °F 29% 29.81 in 10.0 mi NW 11.5 mph - N/A   Scattered Clouds
5:53 PM 84.9 °F - 52.0 °F 32% 29.82 in 10.0 mi NW 15.0 mph - N/A   Clear
6:53 PM 82.0 °F - 51.1 °F 34% 29.83 in 10.0 mi NW 13.8 mph - N/A   Clear
7:53 PM 78.1 °F - 48.0 °F 35% 29.86 in 10.0 mi WNW 9.2 mph - N/A   Clear
8:53 PM 73.0 °F - 48.9 °F 42% 29.87 in 10.0 mi WNW 6.9 mph - N/A   Clear
9:53 PM 73.0 °F - 48.9 °F 42% 29.89 in 10.0 mi West 6.9 mph - N/A   Clear
10:53 PM 70.0 °F - 51.1 °F 51% 29.91 in 10.0 mi NNW 5.8 mph - N/A   Clear
11:53 PM 70.0 °F - 52.0 °F 53% 29.92 in 10.0 mi Calm Calm - N/A   Clear